Year,Month,Day,Hour,Minute,Value (Times are PST for temperature in C)
2012,01,16,00,00,-4.70
2012,01,16,00,01,-4.70
2012,01,16,00,02,-4.60
2012,01,16,00,03,-4.60
2012,01,16,00,04,-4.60
2012,01,16,00,05,-4.60
2012,01,16,00,06,-4.60
2012,01,16,00,07,-4.60
2012,01,16,00,08,-4.60
2012,01,16,00,09,-4.60
2012,01,16,00,10,-4.60
2012,01,16,00,11,-4.60
2012,01,16,00,12,-4.70
2012,01,16,00,13,-4.70
2012,01,16,00,14,-4.70
2012,01,16,00,15,-4.60
2012,01,16,00,16,-4.70
2012,01,16,00,17,-4.60
2012,01,16,00,18,-4.60
2012,01,16,00,19,-4.50
2012,01,16,00,20,-4.50
2012,01,16,00,21,-4.50
2012,01,16,00,22,-4.50
2012,01,16,00,23,-4.50
2012,01,16,00,24,-4.50
2012,01,16,00,25,-4.60
2012,01,16,00,26,-4.60
2012,01,16,00,27,-4.50
2012,01,16,00,28,-4.60
2012,01,16,00,29,-4.60
2012,01,16,00,30,-4.60
2012,01,16,00,31,-4.50
2012,01,16,00,32,-4.50
2012,01,16,00,33,-4.50
2012,01,16,00,34,-4.50
2012,01,16,00,35,-4.50
2012,01,16,00,36,-4.60
2012,01,16,00,37,-4.60
2012,01,16,00,38,-4.60
2012,01,16,00,39,-4.60
2012,01,16,00,40,-4.60
2012,01,16,00,41,-4.60
2012,01,16,00,42,-4.70
2012,01,16,00,43,-4.60
2012,01,16,00,44,-4.60
2012,01,16,00,45,-4.60
2012,01,16,00,46,-4.70
2012,01,16,00,47,-4.70
2012,01,16,00,48,-4.70
2012,01,16,00,49,-4.70
2012,01,16,00,50,-4.70
2012,01,16,00,51,-4.70
2012,01,16,00,52,-4.70
2012,01,16,00,53,-4.70
2012,01,16,00,54,-4.70
2012,01,16,00,55,-4.70
2012,01,16,00,56,-4.80
2012,01,16,00,57,-4.80
2012,01,16,00,58,-4.80
2012,01,16,00,59,-4.80
2012,01,16,01,00,-4.80
2012,01,16,01,01,-4.80
2012,01,16,01,02,-4.90
2012,01,16,01,03,-4.90
2012,01,16,01,04,-4.90
2012,01,16,01,05,-4.90
2012,01,16,01,06,-4.90
2012,01,16,01,07,-5.00
2012,01,16,01,08,-4.90
2012,01,16,01,09,-5.00
2012,01,16,01,10,-5.00
2012,01,16,01,11,-5.00
2012,01,16,01,12,-5.00
2012,01,16,01,13,-5.00
2012,01,16,01,14,-5.10
2012,01,16,01,15,-5.00
2012,01,16,01,16,-5.00
2012,01,16,01,17,-5.00
2012,01,16,01,18,-5.00
2012,01,16,01,19,-5.00
2012,01,16,01,20,-5.00
2012,01,16,01,21,-5.00
2012,01,16,01,22,-5.00
2012,01,16,01,23,-5.10
2012,01,16,01,24,-5.10
2012,01,16,01,25,-5.10
2012,01,16,01,26,-5.10
2012,01,16,01,27,-5.10
2012,01,16,01,28,-5.10
2012,01,16,01,29,-5.10
2012,01,16,01,30,-5.10
2012,01,16,01,31,-5.10
2012,01,16,01,32,-5.10
2012,01,16,01,33,-5.10
2012,01,16,01,34,-5.10
2012,01,16,01,35,-5.10
2012,01,16,01,36,-5.10
2012,01,16,01,37,-5.10
2012,01,16,01,38,-5.10
2012,01,16,01,39,-5.10
2012,01,16,01,40,-5.10
2012,01,16,01,41,-5.10
2012,01,16,01,42,-5.10
2012,01,16,01,43,-5.10
2012,01,16,01,44,-5.10
2012,01,16,01,45,-5.00
2012,01,16,01,46,-5.00
2012,01,16,01,47,-5.00
2012,01,16,01,48,-4.90
2012,01,16,01,49,-4.90
2012,01,16,01,50,-4.90
2012,01,16,01,51,-4.90
2012,01,16,01,52,-4.90
2012,01,16,01,53,-4.90
2012,01,16,01,54,-4.90
2012,01,16,01,55,-4.90
2012,01,16,01,56,-4.90
2012,01,16,01,57,-5.00
2012,01,16,01,58,-5.00
2012,01,16,01,59,-5.00
2012,01,16,02,00,-5.00
2012,01,16,02,01,-5.00
2012,01,16,02,02,-5.00
2012,01,16,02,03,-5.00
2012,01,16,02,04,-5.00
2012,01,16,02,05,-5.10
2012,01,16,02,06,-5.10
2012,01,16,02,07,-5.10
2012,01,16,02,08,-5.10
2012,01,16,02,09,-5.20
2012,01,16,02,10,-5.20
2012,01,16,02,11,-5.20
2012,01,16,02,12,-5.20
2012,01,16,02,13,-5.20
2012,01,16,02,14,-5.20
2012,01,16,02,15,-5.20
2012,01,16,02,16,-5.20
2012,01,16,02,17,-5.20
2012,01,16,02,18,-5.20
2012,01,16,02,19,-5.20
2012,01,16,02,20,-5.30
2012,01,16,02,21,-5.30
2012,01,16,02,22,-5.30
2012,01,16,02,23,-5.20
2012,01,16,02,24,-5.20
2012,01,16,02,25,-5.20
2012,01,16,02,26,-5.20
2012,01,16,02,27,-5.30
2012,01,16,02,28,-5.30
2012,01,16,02,29,-5.30
2012,01,16,02,30,-5.30
2012,01,16,02,31,-5.30
2012,01,16,02,32,-5.30
2012,01,16,02,33,-5.30
2012,01,16,02,34,-5.30
2012,01,16,02,35,-5.30
2012,01,16,02,36,-5.30
2012,01,16,02,37,-5.30
2012,01,16,02,38,-5.30
2012,01,16,02,39,-5.30
2012,01,16,02,40,-5.30
2012,01,16,02,41,-5.30
2012,01,16,02,42,-5.30
2012,01,16,02,43,-5.20
2012,01,16,02,44,-5.20
2012,01,16,02,45,-5.20
2012,01,16,02,46,-5.10
2012,01,16,02,47,-5.10
2012,01,16,02,48,-5.10
2012,01,16,02,49,-5.10
2012,01,16,02,50,-5.10
2012,01,16,02,51,-5.20
2012,01,16,02,52,-5.20
2012,01,16,02,53,-5.20
2012,01,16,02,54,-5.20
2012,01,16,02,55,-5.20
2012,01,16,02,56,-5.30
2012,01,16,02,57,-5.20
2012,01,16,02,58,-5.20
2012,01,16,02,59,-5.20
2012,01,16,03,00,-5.20
2012,01,16,03,01,-5.20
2012,01,16,03,02,-5.20
2012,01,16,03,03,-5.20
2012,01,16,03,06,-5.20
2012,01,16,03,07,-5.20
2012,01,16,03,08,-5.20
2012,01,16,03,09,-5.20
2012,01,16,03,10,-5.20
2012,01,16,03,11,-5.20
2012,01,16,03,12,-5.20
2012,01,16,03,13,-5.30
2012,01,16,03,14,-5.30
2012,01,16,03,15,-5.30
2012,01,16,03,16,-5.30
2012,01,16,03,17,-5.30
2012,01,16,03,18,-5.30
2012,01,16,03,19,-5.40
2012,01,16,03,20,-5.40
2012,01,16,03,21,-5.40
2012,01,16,03,22,-5.40
2012,01,16,03,23,-5.40
2012,01,16,03,24,-5.40
2012,01,16,03,25,-5.40
2012,01,16,03,26,-5.40
2012,01,16,03,27,-5.30
2012,01,16,03,28,-5.30
2012,01,16,03,29,-5.30
2012,01,16,03,30,-5.30
2012,01,16,03,31,-5.30
2012,01,16,03,32,-5.40
2012,01,16,03,33,-5.40
2012,01,16,03,34,-5.40
2012,01,16,03,35,-5.40
2012,01,16,03,36,-5.40
2012,01,16,03,37,-5.40
2012,01,16,03,38,-5.40
2012,01,16,03,39,-5.50
2012,01,16,03,40,-5.50
2012,01,16,03,41,-5.50
2012,01,16,03,42,-5.50
2012,01,16,03,43,-5.50
2012,01,16,03,44,-5.40
2012,01,16,03,45,-5.40
2012,01,16,03,46,-5.40
2012,01,16,03,47,-5.40
2012,01,16,03,48,-5.40
2012,01,16,03,49,-5.40
2012,01,16,03,50,-5.40
2012,01,16,03,51,-5.40
2012,01,16,03,52,-5.40
2012,01,16,03,53,-5.30
2012,01,16,03,54,-5.30
2012,01,16,03,55,-5.30
2012,01,16,03,56,-5.30
2012,01,16,03,57,-5.30
2012,01,16,03,58,-5.30
2012,01,16,03,59,-5.30
2012,01,16,04,00,-5.30
2012,01,16,04,01,-5.30
2012,01,16,04,02,-5.30
2012,01,16,04,03,-5.30
2012,01,16,04,04,-5.30
2012,01,16,04,05,-5.30
2012,01,16,04,06,-5.30
2012,01,16,04,07,-5.30
2012,01,16,04,08,-5.30
2012,01,16,04,09,-5.30
2012,01,16,04,10,-5.30
2012,01,16,04,11,-5.30
2012,01,16,04,12,-5.30
2012,01,16,04,13,-5.30
2012,01,16,04,14,-5.30
2012,01,16,04,15,-5.30
2012,01,16,04,16,-5.20
2012,01,16,04,17,-5.20
2012,01,16,04,18,-5.20
2012,01,16,04,19,-5.20
2012,01,16,04,20,-5.20
2012,01,16,04,21,-5.20
2012,01,16,04,22,-5.20
2012,01,16,04,23,-5.20
2012,01,16,04,24,-5.20
2012,01,16,04,25,-5.20
2012,01,16,04,26,-5.20
2012,01,16,04,27,-5.20
2012,01,16,04,28,-5.20
2012,01,16,04,29,-5.20
2012,01,16,04,30,-5.20
2012,01,16,04,31,-5.20
2012,01,16,04,32,-5.20
2012,01,16,04,33,-5.20
2012,01,16,04,34,-5.20
2012,01,16,04,35,-5.10
2012,01,16,04,36,-5.10
2012,01,16,04,37,-5.10
2012,01,16,04,38,-5.10
2012,01,16,04,39,-5.10
2012,01,16,04,40,-5.10
2012,01,16,04,41,-5.10
2012,01,16,04,42,-5.00
2012,01,16,04,43,-5.00
2012,01,16,04,44,-5.00
2012,01,16,04,45,-5.00
2012,01,16,04,46,-4.90
2012,01,16,04,47,-4.90
2012,01,16,04,48,-4.90
2012,01,16,04,49,-4.90
2012,01,16,04,50,-4.80
2012,01,16,04,51,-4.80
2012,01,16,04,52,-4.70
2012,01,16,04,53,-4.70
2012,01,16,04,54,-4.70
2012,01,16,04,55,-4.60
2012,01,16,04,56,-4.60
2012,01,16,04,57,-4.60
2012,01,16,04,58,-4.50
2012,01,16,04,59,-4.50
2012,01,16,05,00,-4.40
2012,01,16,05,01,-4.40
2012,01,16,05,02,-4.40
2012,01,16,05,03,-4.40
2012,01,16,05,04,-4.40
2012,01,16,05,05,-4.40
2012,01,16,05,06,-4.40
2012,01,16,05,07,-4.40
2012,01,16,05,08,-4.40
2012,01,16,05,09,-4.40
2012,01,16,05,10,-4.30
2012,01,16,05,11,-4.30
2012,01,16,05,12,-4.30
2012,01,16,05,13,-4.30
2012,01,16,05,14,-4.30
2012,01,16,05,15,-4.30
2012,01,16,05,16,-4.20
2012,01,16,05,17,-4.20
2012,01,16,05,18,-4.20
2012,01,16,05,19,-4.20
2012,01,16,05,20,-4.10
2012,01,16,05,21,-4.10
2012,01,16,05,22,-4.10
2012,01,16,05,23,-4.10
2012,01,16,05,24,-4.10
2012,01,16,05,25,-4.10
2012,01,16,05,26,-4.10
2012,01,16,05,27,-4.10
2012,01,16,05,28,-4.10
2012,01,16,05,29,-4.10
2012,01,16,05,30,-4.10
2012,01,16,05,31,-4.10
2012,01,16,05,32,-4.10
2012,01,16,05,33,-4.00
2012,01,16,05,34,-4.00
2012,01,16,05,35,-4.00
2012,01,16,05,36,-3.90
2012,01,16,05,37,-3.90
2012,01,16,05,38,-3.90
2012,01,16,05,39,-3.90
2012,01,16,05,40,-3.90
2012,01,16,05,41,-3.90
2012,01,16,05,42,-3.90
2012,01,16,05,43,-3.90
2012,01,16,05,44,-3.90
2012,01,16,05,45,-3.80
2012,01,16,05,46,-3.80
2012,01,16,05,47,-3.80
2012,01,16,05,48,-3.80
2012,01,16,05,49,-3.80
2012,01,16,05,50,-3.80
2012,01,16,05,51,-3.80
2012,01,16,05,52,-3.80
2012,01,16,05,53,-3.80
2012,01,16,05,54,-3.80
2012,01,16,05,55,-3.80
2012,01,16,05,56,-3.80
2012,01,16,05,57,-3.80
2012,01,16,05,58,-3.70
2012,01,16,05,59,-3.70
2012,01,16,06,00,-3.70
2012,01,16,06,01,-3.70
2012,01,16,06,02,-3.70
2012,01,16,06,03,-3.70
2012,01,16,06,04,-3.70
2012,01,16,06,05,-3.80
2012,01,16,06,06,-3.80
2012,01,16,06,07,-3.80
2012,01,16,06,08,-3.80
2012,01,16,06,09,-3.80
2012,01,16,06,10,-3.80
2012,01,16,06,11,-3.80
2012,01,16,06,12,-3.80
2012,01,16,06,13,-3.80
2012,01,16,06,14,-3.70
2012,01,16,06,15,-3.70
2012,01,16,06,16,-3.70
2012,01,16,06,17,-3.70
2012,01,16,06,18,-3.70
2012,01,16,06,19,-3.70
2012,01,16,06,20,-3.70
2012,01,16,06,21,-3.70
2012,01,16,06,22,-3.70
2012,01,16,06,23,-3.70
2012,01,16,06,24,-3.70
2012,01,16,06,25,-3.70
2012,01,16,06,26,-3.70
2012,01,16,06,27,-3.70
2012,01,16,06,28,-3.70
2012,01,16,06,29,-3.70
2012,01,16,06,30,-3.70
2012,01,16,06,31,-3.70
2012,01,16,06,32,-3.70
2012,01,16,06,33,-3.70
2012,01,16,06,34,-3.70
2012,01,16,06,35,-3.60
2012,01,16,06,36,-3.60
2012,01,16,06,37,-3.60
2012,01,16,06,38,-3.60
2012,01,16,06,39,-3.60
2012,01,16,06,40,-3.60
2012,01,16,06,41,-3.70
2012,01,16,06,42,-3.60
2012,01,16,06,43,-3.60
2012,01,16,06,44,-3.60
2012,01,16,06,45,-3.60
2012,01,16,06,46,-3.60
2012,01,16,06,47,-3.60
2012,01,16,06,48,-3.60
2012,01,16,06,49,-3.60
2012,01,16,06,50,-3.60
2012,01,16,06,51,-3.60
2012,01,16,06,52,-3.60
2012,01,16,06,53,-3.60
2012,01,16,06,54,-3.60
2012,01,16,06,55,-3.60
2012,01,16,06,56,-3.60
2012,01,16,06,57,-3.60
2012,01,16,06,58,-3.50
2012,01,16,06,59,-3.50
2012,01,16,07,00,-3.50
2012,01,16,07,01,-3.40
2012,01,16,07,02,-3.40
2012,01,16,07,03,-3.40
2012,01,16,07,04,-3.30
2012,01,16,07,05,-3.30
2012,01,16,07,06,-3.30
2012,01,16,07,07,-3.30
2012,01,16,07,08,-3.30
2012,01,16,07,09,-3.30
2012,01,16,07,10,-3.30
2012,01,16,07,11,-3.30
2012,01,16,07,12,-3.40
2012,01,16,07,13,-3.40
2012,01,16,07,14,-3.40
2012,01,16,07,15,-3.40
2012,01,16,07,16,-3.40
2012,01,16,07,17,-3.40
2012,01,16,07,18,-3.40
2012,01,16,07,19,-3.40
2012,01,16,07,20,-3.40
2012,01,16,07,21,-3.40
2012,01,16,07,22,-3.40
2012,01,16,07,23,-3.40
2012,01,16,07,24,-3.40
2012,01,16,07,25,-3.40
2012,01,16,07,26,-3.40
2012,01,16,07,27,-3.40
2012,01,16,07,28,-3.50
2012,01,16,07,29,-3.50
2012,01,16,07,30,-3.50
2012,01,16,07,31,-3.50
2012,01,16,07,32,-3.50
2012,01,16,07,33,-3.50
2012,01,16,07,34,-3.50
2012,01,16,07,35,-3.50
2012,01,16,07,36,-3.50
2012,01,16,07,37,-3.60
2012,01,16,07,38,-3.60
2012,01,16,07,39,-3.60
2012,01,16,07,40,-3.60
2012,01,16,07,41,-3.60
2012,01,16,07,42,-3.60
2012,01,16,07,43,-3.60
2012,01,16,07,44,-3.60
2012,01,16,07,45,-3.60
2012,01,16,07,46,-3.60
2012,01,16,07,47,-3.60
2012,01,16,07,48,-3.60
2012,01,16,07,49,-3.60
2012,01,16,07,50,-3.60
2012,01,16,07,51,-3.60
2012,01,16,07,52,-3.60
2012,01,16,07,53,-3.60
2012,01,16,07,54,-3.50
2012,01,16,07,55,-3.50
2012,01,16,07,56,-3.50
2012,01,16,07,57,-3.40
2012,01,16,07,58,-3.40
2012,01,16,07,59,-3.40
2012,01,16,08,00,-3.40
2012,01,16,08,01,-3.30
2012,01,16,08,02,-3.30
2012,01,16,08,03,-3.30
2012,01,16,08,04,-3.30
2012,01,16,08,05,-3.30
2012,01,16,08,06,-3.40
2012,01,16,08,07,-3.40
2012,01,16,08,08,-3.40
2012,01,16,08,09,-3.40
2012,01,16,08,10,-3.40
2012,01,16,08,11,-3.40
2012,01,16,08,12,-3.40
2012,01,16,08,13,-3.40
2012,01,16,08,14,-3.40
2012,01,16,08,15,-3.40
2012,01,16,08,16,-3.40
2012,01,16,08,17,-3.50
2012,01,16,08,18,-3.50
2012,01,16,08,19,-3.50
2012,01,16,08,20,-3.50
2012,01,16,08,21,-3.50
2012,01,16,08,22,-3.50
2012,01,16,08,23,-3.50
2012,01,16,08,24,-3.40
2012,01,16,08,25,-3.40
2012,01,16,08,26,-3.40
2012,01,16,08,27,-3.30
2012,01,16,08,28,-3.30
2012,01,16,08,29,-3.30
2012,01,16,08,30,-3.30
2012,01,16,08,31,-3.30
2012,01,16,08,32,-3.20
2012,01,16,08,33,-3.20
2012,01,16,08,34,-3.20
2012,01,16,08,35,-3.20
2012,01,16,08,36,-3.20
2012,01,16,08,37,-3.20
2012,01,16,08,38,-3.10
2012,01,16,08,39,-3.10
2012,01,16,08,40,-3.10
2012,01,16,08,41,-3.10
2012,01,16,08,42,-3.10
2012,01,16,08,43,-3.10
2012,01,16,08,44,-3.10
2012,01,16,08,45,-3.10
2012,01,16,08,46,-3.00
2012,01,16,08,47,-3.00
2012,01,16,08,48,-3.00
2012,01,16,08,49,-3.00
2012,01,16,08,50,-3.00
2012,01,16,08,51,-3.00
2012,01,16,08,52,-3.00
2012,01,16,08,53,-3.00
2012,01,16,08,54,-3.00
2012,01,16,08,55,-3.00
2012,01,16,08,56,-3.00
2012,01,16,08,57,-3.00
2012,01,16,08,58,-3.00
2012,01,16,08,59,-3.00
2012,01,16,09,00,-2.90
2012,01,16,09,01,-2.90
2012,01,16,09,02,-2.90
2012,01,16,09,03,-2.90
2012,01,16,09,04,-2.90
2012,01,16,09,05,-2.90
2012,01,16,09,06,-2.90
2012,01,16,09,07,-2.80
2012,01,16,09,08,-2.80
2012,01,16,09,09,-2.80
2012,01,16,09,10,-2.80
2012,01,16,09,11,-2.80
2012,01,16,09,12,-2.80
2012,01,16,09,13,-2.80
2012,01,16,09,14,-2.80
2012,01,16,09,15,-2.80
2012,01,16,09,16,-2.80
2012,01,16,09,17,-2.80
2012,01,16,09,18,-2.80
2012,01,16,09,19,-2.80
2012,01,16,09,20,-2.70
2012,01,16,09,21,-2.70
2012,01,16,09,22,-2.70
2012,01,16,09,23,-2.70
2012,01,16,09,24,-2.70
2012,01,16,09,25,-2.70
2012,01,16,09,26,-2.70
2012,01,16,09,27,-2.70
2012,01,16,09,28,-2.70
2012,01,16,09,29,-2.70
2012,01,16,09,30,-2.70
2012,01,16,09,31,-2.70
2012,01,16,09,32,-2.70
2012,01,16,09,33,-2.70
2012,01,16,09,34,-2.70
2012,01,16,09,35,-2.70
2012,01,16,09,36,-2.70
2012,01,16,09,37,-2.70
2012,01,16,09,38,-2.70
2012,01,16,09,39,-2.70
2012,01,16,09,40,-2.70
2012,01,16,09,41,-2.70
2012,01,16,09,42,-2.70
2012,01,16,09,43,-2.60
2012,01,16,09,44,-2.60
2012,01,16,09,45,-2.60
2012,01,16,09,46,-2.60
2012,01,16,09,47,-2.60
2012,01,16,09,48,-2.60
2012,01,16,09,49,-2.60
2012,01,16,09,50,-2.50
2012,01,16,09,51,-2.50
2012,01,16,09,52,-2.50
2012,01,16,09,53,-2.50
2012,01,16,09,54,-2.40
2012,01,16,09,55,-2.40
2012,01,16,09,56,-2.40
2012,01,16,09,57,-2.40
2012,01,16,09,58,-2.40
2012,01,16,09,59,-2.40
2012,01,16,10,00,-2.40
2012,01,16,10,01,-2.40
2012,01,16,10,02,-2.40
2012,01,16,10,03,-2.40
2012,01,16,10,04,-2.40
2012,01,16,10,05,-2.30
2012,01,16,10,06,-2.30
2012,01,16,10,07,-2.30
2012,01,16,10,08,-2.30
2012,01,16,10,09,-2.20
2012,01,16,10,10,-2.20
2012,01,16,10,11,-2.20
2012,01,16,10,12,-2.20
2012,01,16,10,13,-2.10
2012,01,16,10,14,-2.10
2012,01,16,10,15,-2.10
2012,01,16,10,16,-2.10
2012,01,16,10,17,-2.10
2012,01,16,10,18,-2.00
2012,01,16,10,19,-2.00
2012,01,16,10,20,-2.00
2012,01,16,10,21,-2.00
2012,01,16,10,22,-2.00
2012,01,16,10,23,-1.90
2012,01,16,10,24,-1.90
2012,01,16,10,25,-1.90
2012,01,16,10,26,-1.90
2012,01,16,10,27,-1.80
2012,01,16,10,28,-1.80
2012,01,16,10,29,-1.80
2012,01,16,10,30,-1.80
2012,01,16,10,31,-1.70
2012,01,16,10,32,-1.70
2012,01,16,10,33,-1.70
2012,01,16,10,34,-1.70
2012,01,16,10,35,-1.70
2012,01,16,10,36,-1.70
2012,01,16,10,37,-1.70
2012,01,16,10,38,-1.60
2012,01,16,10,39,-1.60
2012,01,16,10,40,-1.60
2012,01,16,10,41,-1.60
2012,01,16,10,42,-1.60
2012,01,16,10,43,-1.50
2012,01,16,10,44,-1.50
2012,01,16,10,45,-1.50
2012,01,16,10,46,-1.50
2012,01,16,10,47,-1.50
2012,01,16,10,48,-1.40
2012,01,16,10,49,-1.40
2012,01,16,10,50,-1.40
2012,01,16,10,51,-1.40
2012,01,16,10,52,-1.40
2012,01,16,10,53,-1.30
2012,01,16,10,54,-1.30
2012,01,16,10,55,-1.30
2012,01,16,10,56,-1.20
2012,01,16,10,57,-1.20
2012,01,16,10,58,-1.20
2012,01,16,10,59,-1.10
2012,01,16,11,00,-1.10
2012,01,16,11,01,-1.10
2012,01,16,11,02,-1.10
2012,01,16,11,03,-1.00
2012,01,16,11,04,-0.90
2012,01,16,11,05,-0.90
2012,01,16,11,06,-0.90
2012,01,16,11,07,-0.80
2012,01,16,11,08,-0.80
2012,01,16,11,09,-0.70
2012,01,16,11,10,-0.70
2012,01,16,11,11,-0.60
2012,01,16,11,12,-0.60
2012,01,16,11,13,-0.60
2012,01,16,11,14,-0.50
2012,01,16,11,15,-0.50
2012,01,16,11,16,-0.40
2012,01,16,11,17,-0.40
2012,01,16,11,18,-0.40
2012,01,16,11,19,-0.30
2012,01,16,11,20,-0.30
2012,01,16,11,21,-0.30
2012,01,16,11,22,-0.20
2012,01,16,11,23,-0.20
2012,01,16,11,24,-0.20
2012,01,16,11,25,-0.20
2012,01,16,11,26,-0.10
2012,01,16,11,27,-0.10
2012,01,16,11,28,-0.10
2012,01,16,11,29,-0.10
2012,01,16,11,30,-0.10
2012,01,16,11,31,0.00
2012,01,16,11,32,0.00
2012,01,16,11,33,0.00
2012,01,16,11,34,0.10
2012,01,16,11,35,0.10
2012,01,16,11,36,0.10
2012,01,16,11,37,0.20
2012,01,16,11,38,0.20
2012,01,16,11,39,0.20
2012,01,16,11,40,0.30
2012,01,16,11,41,0.30
2012,01,16,11,42,0.30
2012,01,16,11,43,0.40
2012,01,16,11,44,0.40
2012,01,16,11,45,0.50
2012,01,16,11,46,0.50
2012,01,16,11,47,0.60
2012,01,16,11,48,0.60
2012,01,16,11,49,0.70
2012,01,16,11,50,0.70
2012,01,16,11,51,0.70
2012,01,16,11,52,0.80
2012,01,16,11,53,0.80
2012,01,16,11,54,0.80
2012,01,16,11,55,0.80
2012,01,16,11,56,0.80
2012,01,16,11,57,0.80
2012,01,16,11,58,0.80
2012,01,16,11,59,0.80
2012,01,16,12,00,0.90
2012,01,16,12,01,0.90
2012,01,16,12,02,0.90
2012,01,16,12,03,1.00
2012,01,16,12,04,1.00
2012,01,16,12,05,1.00
2012,01,16,12,06,1.10
2012,01,16,12,07,1.10
2012,01,16,12,08,1.20
2012,01,16,12,09,1.20
2012,01,16,12,10,1.20
2012,01,16,12,11,1.20
2012,01,16,12,12,1.20
2012,01,16,12,13,1.20
2012,01,16,12,14,1.20
2012,01,16,12,15,1.20
2012,01,16,12,16,1.20
2012,01,16,12,17,1.20
2012,01,16,12,18,1.20
2012,01,16,12,19,1.20
2012,01,16,12,20,1.20
2012,01,16,12,21,1.20
2012,01,16,12,22,1.20
2012,01,16,12,23,1.20
2012,01,16,12,24,1.20
2012,01,16,12,25,1.20
2012,01,16,12,26,1.20
2012,01,16,12,27,1.20
2012,01,16,12,28,1.20
2012,01,16,12,29,1.20
2012,01,16,12,30,1.20
2012,01,16,12,31,1.20
2012,01,16,12,32,1.30
2012,01,16,12,33,1.30
2012,01,16,12,34,1.30
2012,01,16,12,35,1.30
2012,01,16,12,36,1.30
2012,01,16,12,37,1.30
2012,01,16,12,38,1.40
2012,01,16,12,39,1.40
2012,01,16,12,40,1.40
2012,01,16,12,41,1.40
2012,01,16,12,42,1.50
2012,01,16,12,43,1.50
2012,01,16,12,44,1.50
2012,01,16,12,45,1.50
2012,01,16,12,46,1.50
2012,01,16,12,47,1.60
2012,01,16,12,48,1.60
2012,01,16,12,49,1.60
2012,01,16,12,50,1.60
2012,01,16,12,51,1.60
2012,01,16,12,52,1.60
2012,01,16,12,53,1.60
2012,01,16,12,54,1.60
2012,01,16,12,55,1.60
2012,01,16,12,56,1.70
2012,01,16,12,57,1.70
2012,01,16,12,58,1.70
2012,01,16,12,59,1.70
2012,01,16,13,00,1.80
2012,01,16,13,01,1.80
2012,01,16,13,02,1.80
2012,01,16,13,03,1.80
2012,01,16,13,04,1.90
2012,01,16,13,05,1.90
2012,01,16,13,06,1.90
2012,01,16,13,07,2.00
2012,01,16,13,08,2.00
2012,01,16,13,09,2.00
2012,01,16,13,10,2.10
2012,01,16,13,11,2.10
2012,01,16,13,12,2.10
2012,01,16,13,13,2.10
2012,01,16,13,14,2.10
2012,01,16,13,15,2.10
2012,01,16,13,16,2.10
2012,01,16,13,17,2.10
2012,01,16,13,18,2.10
2012,01,16,13,19,2.10
2012,01,16,13,20,2.10
2012,01,16,13,21,2.10
2012,01,16,13,22,2.10
2012,01,16,13,23,2.00
2012,01,16,13,24,2.00
2012,01,16,13,25,2.00
2012,01,16,13,26,2.00
2012,01,16,13,27,2.00
2012,01,16,13,28,1.90
2012,01,16,13,29,1.90
2012,01,16,13,30,1.90
2012,01,16,13,31,1.90
2012,01,16,13,32,1.90
2012,01,16,13,33,1.90
2012,01,16,13,34,1.80
2012,01,16,13,35,1.80
2012,01,16,13,36,1.80
2012,01,16,13,37,1.80
2012,01,16,13,38,1.80
2012,01,16,13,39,1.80
2012,01,16,13,40,1.80
2012,01,16,13,41,1.80
2012,01,16,13,42,1.80
2012,01,16,13,43,1.80
2012,01,16,13,44,1.80
2012,01,16,13,45,1.80
2012,01,16,13,46,1.80
2012,01,16,13,47,1.80
2012,01,16,13,48,1.80
2012,01,16,13,49,1.70
2012,01,16,13,50,1.60
2012,01,16,13,51,1.50
2012,01,16,13,52,1.50
2012,01,16,13,53,1.40
2012,01,16,13,54,1.30
2012,01,16,13,55,1.30
2012,01,16,13,56,1.20
2012,01,16,13,57,1.20
2012,01,16,13,58,1.20
2012,01,16,13,59,1.10
2012,01,16,14,00,1.10
2012,01,16,14,01,1.10
2012,01,16,14,02,1.10
2012,01,16,14,03,1.10
2012,01,16,14,04,1.10
2012,01,16,14,05,1.10
2012,01,16,14,06,1.10
2012,01,16,14,07,1.10
2012,01,16,14,08,1.20
2012,01,16,14,09,1.20
2012,01,16,14,10,1.20
2012,01,16,14,11,1.20
2012,01,16,14,12,1.20
2012,01,16,14,13,1.30
2012,01,16,14,14,1.30
2012,01,16,14,15,1.30
2012,01,16,14,16,1.30
2012,01,16,14,17,1.30
2012,01,16,14,18,1.30
2012,01,16,14,19,1.30
2012,01,16,14,20,1.30
2012,01,16,14,21,1.30
2012,01,16,14,22,1.40
2012,01,16,14,23,1.40
2012,01,16,14,24,1.40
2012,01,16,14,25,1.40
2012,01,16,14,26,1.40
2012,01,16,14,27,1.40
2012,01,16,14,28,1.40
2012,01,16,14,29,1.40
2012,01,16,14,30,1.50
2012,01,16,14,31,1.50
2012,01,16,14,32,1.50
2012,01,16,14,33,1.50
2012,01,16,14,34,1.50
2012,01,16,14,35,1.50
2012,01,16,14,36,1.50
2012,01,16,14,37,1.50
2012,01,16,14,38,1.50
2012,01,16,14,39,1.50
2012,01,16,14,40,1.50
2012,01,16,14,41,1.50
2012,01,16,14,42,1.50
2012,01,16,14,43,1.50
2012,01,16,14,44,1.40
2012,01,16,14,45,1.40
2012,01,16,14,46,1.40
2012,01,16,14,47,1.30
2012,01,16,14,48,1.30
2012,01,16,14,49,1.30
2012,01,16,14,50,1.20
2012,01,16,14,51,1.20
2012,01,16,14,52,1.20
2012,01,16,14,53,1.20
2012,01,16,14,54,1.20
2012,01,16,14,55,1.20
2012,01,16,14,56,1.20
2012,01,16,14,57,1.20
2012,01,16,14,58,1.20
2012,01,16,14,59,1.20
2012,01,16,15,00,1.20
2012,01,16,15,01,1.20
2012,01,16,15,02,1.20
2012,01,16,15,03,1.20
2012,01,16,15,04,1.20
2012,01,16,15,05,1.20
2012,01,16,15,06,1.20
2012,01,16,15,07,1.20
2012,01,16,15,08,1.30
2012,01,16,15,09,1.30
2012,01,16,15,10,1.30
2012,01,16,15,11,1.30
2012,01,16,15,12,1.30
2012,01,16,15,13,1.30
2012,01,16,15,14,1.30
2012,01,16,15,15,1.40
2012,01,16,15,16,1.40
2012,01,16,15,17,1.40
2012,01,16,15,18,1.40
2012,01,16,15,19,1.50
2012,01,16,15,20,1.50
2012,01,16,15,21,1.50
2012,01,16,15,22,1.50
2012,01,16,15,23,1.50
2012,01,16,15,24,1.50
2012,01,16,15,25,1.50
2012,01,16,15,26,1.40
2012,01,16,15,27,1.40
2012,01,16,15,28,1.40
2012,01,16,15,29,1.40
2012,01,16,15,30,1.40
2012,01,16,15,31,1.40
2012,01,16,15,32,1.40
2012,01,16,15,33,1.40
2012,01,16,15,34,1.40
2012,01,16,15,35,1.40
2012,01,16,15,36,1.50
2012,01,16,15,37,1.40
2012,01,16,15,38,1.50
2012,01,16,15,39,1.50
2012,01,16,15,40,1.50
2012,01,16,15,41,1.50
2012,01,16,15,42,1.50
2012,01,16,15,43,1.50
2012,01,16,15,44,1.60
2012,01,16,15,45,1.60
2012,01,16,15,46,1.60
2012,01,16,15,47,1.60
2012,01,16,15,48,1.60
2012,01,16,15,49,1.60
2012,01,16,15,50,1.60
2012,01,16,15,51,1.60
2012,01,16,15,52,1.60
2012,01,16,15,53,1.60
2012,01,16,15,54,1.60
2012,01,16,15,55,1.60
2012,01,16,15,56,1.60
2012,01,16,15,57,1.60
2012,01,16,15,58,1.50
2012,01,16,15,59,1.50
2012,01,16,16,00,1.50
2012,01,16,16,01,1.50
2012,01,16,16,02,1.50
2012,01,16,16,03,1.50
2012,01,16,16,04,1.50
2012,01,16,16,05,1.60
2012,01,16,16,06,1.50
2012,01,16,16,07,1.60
2012,01,16,16,08,1.60
2012,01,16,16,09,1.60
2012,01,16,16,10,1.60
2012,01,16,16,11,1.60
2012,01,16,16,12,1.60
2012,01,16,16,13,1.60
2012,01,16,16,14,1.60
2012,01,16,16,15,1.70
2012,01,16,16,16,1.70
2012,01,16,16,17,1.70
2012,01,16,16,18,1.70
2012,01,16,16,19,1.80
2012,01,16,16,20,1.80
2012,01,16,16,21,1.80
2012,01,16,16,22,1.80
2012,01,16,16,23,1.80
2012,01,16,16,24,1.80
2012,01,16,16,25,1.80
2012,01,16,16,26,1.80
2012,01,16,16,27,1.80
2012,01,16,16,28,1.70
2012,01,16,16,29,1.70
2012,01,16,16,30,1.60
2012,01,16,16,31,1.60
2012,01,16,16,32,1.60
2012,01,16,16,33,1.60
2012,01,16,16,34,1.60
2012,01,16,16,35,1.60
2012,01,16,16,36,1.60
2012,01,16,16,37,1.50
2012,01,16,16,38,1.50
2012,01,16,16,39,1.40
2012,01,16,16,40,1.40
2012,01,16,16,41,1.40
2012,01,16,16,42,1.40
2012,01,16,16,43,1.40
2012,01,16,16,44,1.30
2012,01,16,16,45,1.30
2012,01,16,16,46,1.30
2012,01,16,16,47,1.20
2012,01,16,16,48,1.20
2012,01,16,16,49,1.10
2012,01,16,16,50,1.10
2012,01,16,16,51,1.00
2012,01,16,16,52,0.90
2012,01,16,16,53,0.80
2012,01,16,16,54,0.80
2012,01,16,16,55,0.70
2012,01,16,16,56,0.60
2012,01,16,16,57,0.60
2012,01,16,16,58,0.50
2012,01,16,16,59,0.40
2012,01,16,17,00,0.40
2012,01,16,17,01,0.30
2012,01,16,17,02,0.30
2012,01,16,17,03,0.30
2012,01,16,17,04,0.30
2012,01,16,17,05,0.30
2012,01,16,17,06,0.30
2012,01,16,17,07,0.40
2012,01,16,17,08,0.40
2012,01,16,17,09,0.40
2012,01,16,17,10,0.50
2012,01,16,17,11,0.50
2012,01,16,17,12,0.60
2012,01,16,17,13,0.60
2012,01,16,17,14,0.60
2012,01,16,17,15,0.60
2012,01,16,17,16,0.60
2012,01,16,17,17,0.70
2012,01,16,17,18,0.70
2012,01,16,17,19,0.70
2012,01,16,17,20,0.70
2012,01,16,17,21,0.70
2012,01,16,17,22,0.70
2012,01,16,17,23,0.70
2012,01,16,17,24,0.70
2012,01,16,17,25,0.60
2012,01,16,17,26,0.60
2012,01,16,17,27,0.60
2012,01,16,17,28,0.50
2012,01,16,17,29,0.50
2012,01,16,17,30,0.50
2012,01,16,17,31,0.40
2012,01,16,17,32,0.40
2012,01,16,17,33,0.40
2012,01,16,17,34,0.30
2012,01,16,17,35,0.30
2012,01,16,17,36,0.30
2012,01,16,17,37,0.20